DW1970 Weather Reports


time (UTC)temp
C
wind
direction
speed
KPH
gust
KPH
rain 1hr
cm
rain 24hr
cm
rain mn
cm
humidity
%
barometer
mb
20260903091555 16 223 0.0 4.8 0.00 0.38 0.00 97 1015.8
20260903090052 16 216 0.0 0.0 0.00 0.38 0.00 97 1015.9
20260903084552 16 216 0.0 0.0 0.00 0.38 0.00 97 1016.1
20260903083049 16 220 0.0 0.0 0.00 0.38 0.00 97 1016.1
20260903081548 16 216 0.0 0.0 0.00 0.38 0.00 97 1016.2
20260903080046 15 221 0.0 0.0 0.00 0.38 0.00 97 1016.2
20260903074544 15 209 0.0 0.0 0.00 0.38 0.00 97 1016.2
20260903073047 15 216 0.0 0.0 0.00 0.38 0.00 97 1016.3
20260903071542 15 216 0.0 0.0 0.00 0.38 0.00 96 1016.4
20260903070044 15 216 0.0 0.0 0.00 0.38 0.00 96 1016.5
20260903064535 15 215 0.0 0.0 0.00 0.38 0.38 96 1016.6
20260903063034 15 230 0.0 0.0 0.00 0.38 0.38 96 1016.6
20260903061553 15 272 0.0 0.0 0.00 0.38 0.38 96 1016.8
20260903060034 15 341 0.0 0.0 0.00 0.38 0.38 96 1016.8
20260903054533 15 341 0.0 0.0 0.00 0.38 0.38 96 1016.8
20260903053034 15 341 0.0 0.0 0.00 0.38 0.38 96 1016.9
20260903051532 15 341 0.0 0.0 0.00 0.38 0.38 96 1017.0
20260903050031 15 341 0.0 0.0 0.00 0.38 0.38 96 1017.1
20260903044530 15 341 0.0 0.0 0.00 0.38 0.38 96 1017.1
20260903043034 15 341 0.0 0.0 0.00 0.38 0.38 96 1017.1
20260903041533 16 341 0.0 0.0 0.00 0.38 0.38 96 1017.0
20260903040029 16 341 0.0 0.0 0.00 0.38 0.38 96 1017.0
20260903034529 16 342 0.0 0.0 0.00 0.38 0.38 96 1016.8
20260903033028 16 306 0.0 0.0 0.00 0.38 0.38 95 1016.7
20260903031531 16 303 0.0 0.0 0.00 0.38 0.38 95 1016.5
20260903030051 16 307 0.0 0.0 0.00 0.38 0.38 95 1016.5
20260903024524 16 314 0.0 0.0 0.00 0.38 0.38 95 1016.5
20260903023020 16 310 0.0 0.0 0.00 0.38 0.38 94 1016.6
20260903021516 16 296 0.0 0.0 0.00 0.38 0.38 94 1016.6
20260903020011 16 294 0.0 0.0 0.00 0.38 0.38 93 1016.6
20260903014507 16 299 0.0 0.0 0.00 0.38 0.38 92 1016.7
20260903013002 16 304 0.0 0.0 0.00 0.38 0.38 91 1016.7
20260903011609 17 300 0.0 0.0 0.00 0.38 0.38 91 1016.8
20260903010114 17 301 0.0 0.0 0.00 0.38 0.38 91 1016.9
20260903004550 17 284 0.0 0.0 0.00 0.38 0.38 88 1016.9
20260903003046 18 304 0.0 0.0 0.00 0.38 0.38 87 1016.9
20260903001546 18 331 0.0 0.0 0.00 0.38 0.38 88 1016.9
20260903000045 18 304 0.0 3.2 0.00 0.38 0.38 87 1017.1
20260902234544 18 300 0.0 1.6 0.00 0.38 0.38 86 1017.2
20260902233040 18 267 0.0 4.8 0.00 0.38 0.38 86 1017.3
20260902231543 18 277 0.0 3.2 0.00 0.38 0.38 87 1017.4
20260902230030 18 294 0.0 3.2 0.00 0.38 0.38 85 1017.5
20260902224543 18 305 0.0 3.2 0.00 0.38 0.38 85 1017.8
20260902223022 18 297 0.0 1.6 0.00 0.38 0.38 83 1017.8
20260902221522 18 328 0.0 1.6 0.00 0.38 0.38 85 1018.0
20260902220028 18 296 0.0 8.0 0.00 0.38 0.38 84 1018.0
20260902214510 18 334 0.0 0.0 0.00 0.38 0.38 86 1018.1
20260902213003 18 318 0.0 0.0 0.00 0.38 0.38 86 1018.1
20260902211559 17 300 0.0 4.8 0.00 0.38 0.38 87 1018.1
20260902210054 17 335 0.0 1.6 0.00 0.38 0.38 91 1018.1
20260902204551 17 335 0.0 0.0 0.00 0.38 0.38 92 1017.9
20260902203046 17 272 0.0 0.0 0.00 0.38 0.38 92 1018.2
20260902201550 17 299 0.0 1.6 0.00 0.38 0.38 93 1018.2
20260902200037 17 328 0.0 8.0 0.00 0.38 0.38 95 1018.1
20260902194535 16 312 0.0 0.0 0.00 0.38 0.38 95 1018.2
20260902193040 16 354 0.0 0.0 0.00 0.38 0.38 97 1018.1
20260902191526 16 316 0.0 0.0 0.00 0.38 0.38 97 1018.3
20260902190021 16 311 0.0 0.0 0.00 0.38 0.38 97 1018.3
20260902184520 16 317 0.0 0.0 0.00 0.38 0.38 97 1018.4
20260902183026 16 305 0.0 0.0 0.00 0.38 0.38 98 1018.5
20260902181518 16 300 0.0 0.0 0.00 0.38 0.38 98 1018.3
20260902180015 15 352 0.0 0.0 0.00 0.38 0.38 98 1018.2
20260902174513 15 335 0.0 0.0 0.00 0.38 0.38 98 1017.9
20260902173016 15 341 0.0 0.0 0.00 0.38 0.38 98 1017.8
20260902171511 15 344 0.0 1.6 0.00 0.38 0.38 97 1017.7
20260902170009 15 330 0.0 0.0 0.00 0.38 0.38 97 1017.6
20260902164508 15 346 0.0 0.0 0.03 0.41 0.38 97 1017.5
20260902163006 15 359 0.0 0.0 0.03 0.41 0.38 97 1017.2
20260902161506 15 338 0.0 0.0 0.03 0.41 0.38 97 1017.0
20260902160007 15 302 0.0 0.0 0.03 0.41 0.38 97 1017.0
20260902154505 15 267 0.0 0.0 0.00 0.38 0.36 97 1017.0
20260902153011 15 225 0.0 0.0 0.00 0.38 0.36 97 1017.1
20260902151503 15 231 0.0 0.0 0.00 0.38 0.36 97 1017.0
20260902150001 15 208 0.0 0.0 0.00 0.38 0.36 97 1016.9
20260902144603 15 220 0.0 0.0 0.00 0.38 0.36 97 1016.9
20260902143059 15 202 0.0 12.9 0.00 0.38 0.36 97 1016.6
20260902141557 15 208 0.0 19.3 0.00 0.38 0.36 97 1016.4
20260902140056 15 215 4.8 20.9 0.00 0.38 0.36 97 1016.1
20260902134557 15 220 0.0 14.5 0.00 0.41 0.36 97 1015.9
20260902133056 15 217 3.2 24.1 0.05 0.41 0.36 97 1015.9
20260902131555 15 220 9.7 24.1 0.08 0.41 0.36 97 1015.6
20260902130051 15 221 9.7 27.4 0.15 0.41 0.36 97 1015.5
20260902124550 15 216 3.2 25.7 0.15 0.41 0.36 97 1015.4
20260902123055 15 220 4.8 24.1 0.10 0.36 0.30 97 1015.5
20260902121545 15 223 1.6 19.3 0.20 0.33 0.28 97 1015.5
20260902120044 15 200 8.0 22.5 0.18 0.25 0.20 97 1015.5
20260902114544 15 213 0.0 17.7 0.18 0.25 0.20 97 1015.6
20260902113040 15 221 0.0 17.7 0.18 0.25 0.20 97 1015.7
20260902111540 15 223 3.2 20.9 0.05 0.13 0.08 96 1015.7
20260902110043 15 221 6.4 24.1 0.00 0.08 0.03 97 1015.5
20260902104536 15 214 9.7 24.1 0.00 0.08 0.03 96 1015.5
20260902103033 15 219 9.7 24.1 0.00 0.08 0.03 96 1015.6
20260902101536 15 198 3.2 22.5 0.00 0.08 0.03 96 1015.8
20260902100030 15 208 3.2 20.9 0.03 0.08 0.03 96 1016.0
20260902094530 15 218 1.6 14.5 0.03 0.10 0.03 95 1016.0
20260902093036 15 193 0.0 1.6 0.03 0.10 0.03 95 1016.0